This is the latest recevied weather packets stored in our database for station/object I1SXT-13. If no packets are shown the sender has not sent any weather packets the latest 10 day(s).
| Time | Temp. | Humidity | Pressure | Rain* | Wind** | Luminosity | Snow |
|---|---|---|---|---|---|---|---|
| 1777482567 | 19.44° C | 48% | 1016.2 hPa | 0 mm | - | - | - |
| 1777482270 | 20° C | 43% | 1015.7 hPa | 0 mm | - | - | - |
| 1777481966 | 20° C | 44% | 1015.8 hPa | 0 mm | - | - | - |
| 1777481669 | 20° C | 37% | 1016 hPa | 0 mm | - | - | - |
| 1777480764 | 19.44° C | 40% | 1015.6 hPa | 0 mm | - | - | - |
| 1777480467 | 20° C | 43% | 1016 hPa | 0 mm | - | - | - |
| 1777480170 | 20.56° C | 42% | 1016 hPa | 0 mm | - | - | - |
| 1777479866 | 20.56° C | 36% | 1015.7 hPa | 0 mm | - | - | - |
| 1777479568 | 20.56° C | 33% | 1016 hPa | 0 mm | - | - | - |
| 1777479264 | 21.11° C | 39% | 1015.9 hPa | 0 mm | - | - | - |
| 1777478366 | 21.67° C | 34% | 1016 hPa | 0 mm | - | - | - |
| 1777478069 | 21.67° C | 34% | 1016 hPa | 0 mm | - | - | - |
| 1777477765 | 21.67° C | 31% | 1016 hPa | 0 mm | - | - | - |
| 1777477467 | 21.67° C | 31% | 1016 hPa | 0 mm | - | - | - |
| 1777477163 | 21.67° C | 31% | 1016.1 hPa | 0 mm | - | - | - |
| 1777476866 | 21.67° C | 40% | 1016.1 hPa | 0 mm | - | - | - |
| 1777476569 | 22.22° C | 36% | 1015.9 hPa | 0 mm | - | - | - |
| 1777476265 | 22.22° C | 38% | 1016 hPa | 0 mm | - | - | - |
| 1777475968 | 22.22° C | 35% | 1016.1 hPa | 0 mm | - | - | - |
| 1777475664 | 22.22° C | 33% | 1016 hPa | 0 mm | - | - | - |
| 1777475367 | 22.78° C | 33% | 1015.9 hPa | 0 mm | - | - | - |
| 1777475070 | 22.78° C | 34% | 1015.8 hPa | 0 mm | - | - | - |
| 1777474766 | 23.33° C | 33% | 1016 hPa | 0 mm | - | - | - |
| 1777474468 | 23.33° C | 32% | 1016.5 hPa | 0 mm | - | - | - |
| 1777474164 | 23.89° C | 35% | 1015.4 hPa | 0 mm | - | - | - |
* Rain since midnight (hover to see other rain measurements)
** Current wind speed in m/s (hover to see current wind gust speed)